カタログに戻る

COSMOS 1136

運用中ナビゲーションLEO
NORAD 11544·PAYLOAD·🇷🇺 Russia

打ち上げ Sep 25, 1979 から Plesetsk Cosmodrome

Loading…

次のパス (今後24時間)

TLE

最新Source: Space-Track

元期: Sep 14, 2026, 09:57 UTC

1 11544U 79084G   26257.41485083 -.00000030  00000-0 -10047-3 0  9998
2 11544  74.0246  46.5415 0015870 225.2044 163.8503 12.45311490135224

AllMySatでCOSMOS 1136をリアルタイム追跡

Download on the App Store